This is the latest recevied weather packets stored in our database for station/object DM3DP. If no packets are shown the sender has not sent any weather packets the latest 10 day(s).
| Time | Temp. | Humidity | Pressure | Rain* | Wind** | Luminosity | Snow |
|---|---|---|---|---|---|---|---|
| 1777878174 | 15.56° C | 86% | 1011.4 hPa | 0 mm | - | 331 W/m² | - |
| 1777877844 | 15.56° C | 86% | 1011.4 hPa | 0 mm | - | 442 W/m² | - |
| 1777877514 | 15° C | 87% | 1011.4 hPa | 0 mm | - | 538 W/m² | - |
| 1777877185 | 15° C | 88% | 1011.4 hPa | 0 mm | - | 227 W/m² | - |
| 1777876854 | 13.89° C | 92% | 1011.4 hPa | 0 mm | - | 647 W/m² | - |
| 1777876525 | 13.33° C | 94% | 1011.4 hPa | 0 mm | - | 255 W/m² | - |
| 1777876194 | 12.78° C | 95% | 1011.4 hPa | 0 mm | - | 296 W/m² | - |
| 1777875864 | 12.78° C | 95% | 1011.4 hPa | 0 mm | - | 294 W/m² | - |
| 1777875535 | 12.78° C | 95% | 1011.4 hPa | 0 mm | - | 41 W/m² | - |
| 1777875204 | 12.78° C | 95% | 1011.4 hPa | 0 mm | - | 25 W/m² | - |
| 1777874874 | 12.22° C | 95% | 1011.3 hPa | 0 mm | - | 48 W/m² | - |
| 1777874545 | 12.22° C | 95% | 1011.3 hPa | 0 mm | - | 51 W/m² | - |
| 1777874214 | 12.22° C | 96% | 1011.3 hPa | 0 mm | - | 39 W/m² | - |
| 1777873884 | 12.22° C | 96% | 1011.3 hPa | 0 mm | - | 33 W/m² | - |
| 1777873555 | 12.22° C | 96% | 1011.2 hPa | 0 mm | - | 28 W/m² | - |
| 1777873224 | 12.22° C | 96% | 1011.1 hPa | 0 mm | - | 21 W/m² | - |
| 1777872895 | 11.67° C | 96% | 1011 hPa | 0 mm | - | 20 W/m² | - |
| 1777872564 | 11.67° C | 96% | 1011 hPa | 0 mm | - | 15 W/m² | - |
| 1777872234 | 12.22° C | 96% | 1010.9 hPa | 0 mm | - | 13 W/m² | - |
| 1777871904 | 11.67° C | 97% | 1010.8 hPa | 0 mm | - | 55 W/m² | - |
| 1777871574 | 11.67° C | 97% | 1010.8 hPa | 0 mm | - | 24 W/m² | - |
| 1777871244 | 11.67° C | 97% | 1010.7 hPa | 0 mm | - | 27 W/m² | - |
| 1777870914 | 11.11° C | 97% | 1010.6 hPa | 0 mm | - | 30 W/m² | - |
| 1777870584 | 11.11° C | 97% | 1010.6 hPa | 0 mm | - | 35 W/m² | - |
| 1777870254 | 11.11° C | 97% | 1010.6 hPa | 0 mm | - | 29 W/m² | - |
* Rain latest hour (hover to see other rain measurements)
** Current wind speed in m/s (hover to see current wind gust speed)